Home   Weather   Gautier   Past weeks
Flag for USA

Past Weather in Gautier, Mississippi, USA — Yesterday and Last 2 Weeks

Now
85 °F

Overcast.


Feels Like: 91 °F
Forecast: 85 / 73 °F
Wind: 6 mph from Southwest

Location: Lott International Airport

Current Time: May 20, 2019 at 5:49:02 pm

Latest Report: May 20, 2019 at 4:53 pm


Visibility: 10 mi

Pressure: 29.96 "Hg

Humidity: 65%

Dew Point: 72 °F

Location of GautierLocation

Past Weather in Gautier — Graph

°F

Gautier Temperature Yesterday

Maximum temperature yesterday: 83 °F (at 12:00 pm)
Minimum temperature yesterday: 68 °F (at 11:04 pm)
Average temperature yesterday: 76 °F

High & Low Weather Summary for the Past Weeks

 TemperatureHumidityPressure
High89 °F (May 20, 11:53 am)94% (May 6, 9:53 pm)30.10 "Hg (May 6, 9:53 pm)
Low58 °F (May 7, 3:57 am)33% (May 6, 1:53 pm)29.76 "Hg (May 12, 5:12 pm)
Average74 °F77%29.96 "Hg
* Reported May 5 4:53 pm — May 20 4:06 pm, Gautier. Weather by CustomWeather, © 2019

Note: Actual official high and low records may vary slightly from our data, if they occured in-between our weather recording intervals... More about our weather records

Advertising

Gautier Weather History for the Previous 24 Hours

Scroll right to see more
 ConditionsComfort  
Time TempWeatherWind HumidityBarometerVisibility
4:06 pm
Mon, May 20
88 °FSunny.8 mph59%29.97 "Hg10 mi
3:42 pm87 °FThundershowers. Passing clouds.7 mph61%29.97 "Hg10 mi
2:53 pm88 °FScattered clouds.9 mph61%29.98 "Hg10 mi
1:53 pm89 °FPassing clouds.8 mph59%30.00 "Hg10 mi
12:53 pm89 °FScattered clouds.7 mph59%30.01 "Hg10 mi
11:53 am89 °FSunny.5 mph57%30.03 "Hg10 mi
10:53 am87 °FPassing clouds.5 mph61%30.04 "Hg10 mi
9:53 am84 °FScattered clouds.3 mph67%30.05 "Hg10 mi
8:53 am83 °FScattered clouds.5 mph77%30.05 "Hg10 mi
7:53 am78 °FScattered clouds.No wind84%30.04 "Hg10 mi
6:53 am72 °FFog.No wind87%30.02 "Hg6 mi
6:42 am71 °FFog.No wind87%30.02 "Hg6 mi
6:06 am68 °FPartly sunny.No wind90%30.01 "Hg8 mi
4:53 am68 °FFog.No wind90%30.00 "Hg3 mi
4:44 am67 °FFog.No wind90%29.99 "Hg2 mi
4:37 am67 °FFog.No wind93%29.99 "Hg3 mi
4:10 am68 °FClear.No wind90%29.99 "Hg7 mi
3:53 am68 °FFog.No wind87%29.99 "Hg1 mi
2:53 am68 °FPassing clouds.No wind93%29.99 "Hg7 mi
2:41 am69 °FFog.No wind90%29.99 "Hg3 mi
2:19 am68 °FFog.No wind93%29.99 "Hg3 mi
1:53 am68 °FFog.No wind93%30.00 "Hg5 mi
1:36 am69 °FFog.No wind90%30.00 "Hg1 mi
12:53 am70 °FPassing clouds.No wind90%30.01 "Hg9 mi
12:05 am69 °FFog.No wind90%30.01 "Hg5 mi
11:28 pm
Sun, May 19
69 °FFog.No wind90%30.01 "Hg4 mi
11:04 pm68 °FFog.No wind93%30.00 "Hg2 mi
10:55 pm70 °FFog.No wind90%30.00 "Hg3 mi
10:20 pm69 °FFog.No wind90%30.00 "Hg1 mi
9:22 pm71 °FClear.No wind90%29.98 "Hg8 mi
9:13 pm70 °FFog.No wind90%29.98 "Hg2 mi
8:53 pm71 °FClear.No wind90%29.97 "Hg10 mi
7:53 pm73 °FClear.No wind88%29.97 "Hg10 mi
6:53 pm76 °FPartly sunny.No wind80%29.96 "Hg10 mi
5:53 pm77 °FPartly sunny.3 mph77%29.96 "Hg10 mi
Weather by CustomWeather, © 2019

See weather overview